ETD9YK OMAA-LSGG

Flight info

Callsign ETD9YK
Flight time N/A
Altitude 32000
Route DEMTA DCT DEBUD T556 NOSGI M430 KSA M321 HLF W334 NAGIP N697 RUKET/N0458F340 L550 NOVPA J981 DATOK L550 GENIV L324 LAKTO DCT ANIDE UL53 KRK UL995 TIGRA DCT OSDAX DCT OTRET DCT ROSUV DCT APRIV DCT AOSTA DCT BANKO
Aircraft A21N/M-SDE2E3FGHIJ1RWXY/LB1

Departure

Time 2026-04-27 04:54
Airport Zayed International Airport (OMAA)

Arrival

Time N/A
Airport Geneva International Airport (LSGG)
Time Latitude Longitude Altitude Speed Heading
2026-04-27 04:28 24.44539 54.64555 90 ft 0 kts 284°
2026-04-27 04:37 24.44537 54.64563 90 ft 2 kts 284°
2026-04-27 04:38 24.44534 54.64579 90 ft 2 kts 282°
2026-04-27 04:38 24.44531 54.64595 90 ft 2 kts 281°
2026-04-27 04:38 24.44528 54.64611 90 ft 2 kts 282°
2026-04-27 04:38 24.44525 54.64627 91 ft 2 kts 281°
2026-04-27 04:39 24.44522 54.64643 91 ft 2 kts 282°
2026-04-27 04:39 24.44519 54.64659 90 ft 2 kts 281°
2026-04-27 04:39 24.44516 54.64675 91 ft 2 kts 282°
2026-04-27 04:39 24.44515 54.64692 91 ft 2 kts 252°
2026-04-27 04:40 24.44522 54.64707 91 ft 2 kts 229°
2026-04-27 04:40 24.44534 54.64717 90 ft 2 kts 213°
2026-04-27 04:40 24.44546 54.64727 90 ft 2 kts 199°
2026-04-27 04:40 24.44561 54.64729 90 ft 2 kts 176°
2026-04-27 04:41 24.44576 54.64725 91 ft 2 kts 153°
2026-04-27 04:41 24.44588 54.64716 91 ft 2 kts 131°
2026-04-27 04:41 24.44596 54.64702 90 ft 2 kts 121°
2026-04-27 04:41 24.44601 54.64693 91 ft 0 kts 126°
2026-04-27 04:43 24.44600 54.64695 90 ft 0 kts 126°
2026-04-27 04:44 24.44595 54.64703 90 ft 1 kts 126°
2026-04-27 04:44 24.44586 54.64716 90 ft 2 kts 122°
2026-04-27 04:44 24.44581 54.64737 90 ft 3 kts 89°
2026-04-27 04:44 24.44589 54.64762 90 ft 3 kts 57°
2026-04-27 04:45 24.44604 54.64786 90 ft 4 kts 72°
2026-04-27 04:45 24.44603 54.64820 90 ft 4 kts 113°
2026-04-27 04:45 24.44582 54.64851 91 ft 5 kts 128°
2026-04-27 04:45 24.44557 54.64887 91 ft 6 kts 128°
2026-04-27 04:46 24.44528 54.64926 90 ft 6 kts 128°
2026-04-27 04:46 24.44497 54.64970 91 ft 7 kts 128°
2026-04-27 04:46 24.44463 54.65018 91 ft 8 kts 128°
2026-04-27 04:46 24.44427 54.65069 91 ft 8 kts 128°
2026-04-27 04:47 24.44387 54.65124 91 ft 9 kts 127°
2026-04-27 04:47 24.44359 54.65189 91 ft 9 kts 84°
2026-04-27 04:47 24.44402 54.65248 91 ft 10 kts 37°
2026-04-27 04:47 24.44459 54.65298 91 ft 10 kts 38°
2026-04-27 04:48 24.44520 54.65348 91 ft 11 kts 38°
2026-04-27 04:48 24.44582 54.65402 91 ft 11 kts 38°
2026-04-27 04:48 24.44646 54.65456 91 ft 11 kts 38°
2026-04-27 04:48 24.44711 54.65511 91 ft 11 kts 38°
2026-04-27 04:49 24.44778 54.65567 91 ft 12 kts 37°
2026-04-27 04:49 24.44844 54.65624 91 ft 11 kts 38°
2026-04-27 04:49 24.44847 54.65698 91 ft 11 kts 123°
2026-04-27 04:49 24.44798 54.65767 91 ft 11 kts 128°
2026-04-27 04:50 24.44747 54.65839 91 ft 11 kts 128°
2026-04-27 04:50 24.44696 54.65911 91 ft 12 kts 128°
2026-04-27 04:50 24.44638 54.65993 91 ft 15 kts 127°
2026-04-27 04:50 24.44564 54.66097 91 ft 19 kts 128°
2026-04-27 04:51 24.44475 54.66223 91 ft 22 kts 128°
2026-04-27 04:51 24.44375 54.66363 91 ft 23 kts 128°
2026-04-27 04:51 24.44275 54.66504 91 ft 22 kts 128°
2026-04-27 04:51 24.44181 54.66637 91 ft 21 kts 128°
2026-04-27 04:52 24.44095 54.66759 91 ft 14 kts 128°
2026-04-27 04:52 24.44067 54.66835 91 ft 11 kts 80°
2026-04-27 04:52 24.44116 54.66899 91 ft 11 kts 37°
2026-04-27 04:52 24.44180 54.66952 91 ft 11 kts 38°
2026-04-27 04:53 24.44240 54.66999 91 ft 7 kts 12°
2026-04-27 04:53 24.44278 54.66964 91 ft 7 kts 309°
2026-04-27 04:53 24.44363 54.66849 91 ft 48 kts 309°
2026-04-27 04:53 24.44721 54.66347 91 ft 114 kts 307°
2026-04-27 04:54 24.45325 54.65498 91 ft 167 kts 307°
2026-04-27 04:54 24.46105 54.64415 375 ft 187 kts 309°
2026-04-27 04:54 24.46866 54.63276 1064 ft 185 kts 303°
2026-04-27 04:54 24.47638 54.62206 1723 ft 177 kts 326°
2026-04-27 04:55 24.48765 54.61727 2260 ft 176 kts 343°
2026-04-27 04:55 24.49958 54.61393 2719 ft 179 kts 343°
2026-04-27 04:55 24.51135 54.61034 3302 ft 175 kts 342°
2026-04-27 04:55 24.52343 54.60624 3602 ft 188 kts 340°
2026-04-27 04:56 24.53458 54.59823 3840 ft 204 kts 307°
2026-04-27 04:56 24.53808 54.58258 4146 ft 224 kts 270°
2026-04-27 04:56 24.53607 54.56483 4416 ft 243 kts 268°
2026-04-27 04:56 24.53443 54.54577 4725 ft 259 kts 270°
2026-04-27 04:57 24.53300 54.52555 5030 ft 276 kts 270°
2026-04-27 04:57 24.53157 54.50363 5371 ft 292 kts 270°
2026-04-27 04:57 24.53011 54.48104 5732 ft 307 kts 270°
2026-04-27 04:57 24.52860 54.45716 6112 ft 321 kts 269°
2026-04-27 04:58 24.52705 54.43269 6740 ft 324 kts 269°
2026-04-27 04:58 24.52549 54.40808 7412 ft 326 kts 269°
2026-04-27 04:58 24.52392 54.38311 8040 ft 328 kts 269°
2026-04-27 04:58 24.52234 54.35806 8649 ft 330 kts 268°
2026-04-27 04:59 24.52076 54.33302 9252 ft 332 kts 268°
2026-04-27 04:59 24.51916 54.30778 9857 ft 333 kts 268°
2026-04-27 04:59 24.51753 54.28198 10190 ft 344 kts 268°
2026-04-27 04:59 24.51586 54.25552 10744 ft 347 kts 268°
2026-04-27 05:00 24.51420 54.22951 11501 ft 342 kts 267°
2026-04-27 05:00 24.51253 54.20324 12101 ft 344 kts 267°
2026-04-27 05:00 24.51088 54.17722 12613 ft 346 kts 267°
2026-04-27 05:00 24.50919 54.15080 13106 ft 349 kts 267°
2026-04-27 05:01 24.50749 54.12415 13632 ft 351 kts 266°
2026-04-27 05:01 24.50578 54.09734 14168 ft 352 kts 266°
2026-04-27 05:01 24.50407 54.07073 14675 ft 354 kts 266°
2026-04-27 05:01 24.50231 54.04355 15158 ft 356 kts 266°
2026-04-27 05:02 24.50054 54.01636 15630 ft 359 kts 266°
2026-04-27 05:02 24.49879 53.98925 16119 ft 361 kts 265°
2026-04-27 05:02 24.49519 53.93400 17041 ft 365 kts 265°
2026-04-27 05:03 24.49338 53.90631 17500 ft 367 kts 265°
2026-04-27 05:03 24.49153 53.87831 17952 ft 368 kts 265°
2026-04-27 05:03 24.48967 53.85053 18381 ft 370 kts 265°
2026-04-27 05:03 24.48781 53.82246 18836 ft 372 kts 265°
2026-04-27 05:04 24.48592 53.79409 19276 ft 373 kts 266°
2026-04-27 05:04 24.48403 53.76562 19700 ft 375 kts 266°
2026-04-27 05:04 24.48212 53.73700 20114 ft 377 kts 266°
2026-04-27 05:04 24.48020 53.70821 20533 ft 378 kts 266°
2026-04-27 05:05 24.47826 53.67934 20940 ft 380 kts 266°
2026-04-27 05:05 24.47632 53.65041 21324 ft 382 kts 266°
2026-04-27 05:05 24.47437 53.62141 21709 ft 383 kts 266°
2026-04-27 05:05 24.47238 53.59198 22095 ft 385 kts 266°
2026-04-27 05:06 24.47039 53.56271 22486 ft 386 kts 266°
2026-04-27 05:06 24.46842 53.53351 22860 ft 387 kts 267°
2026-04-27 05:06 24.46641 53.50396 23206 ft 389 kts 267°
2026-04-27 05:06 24.46440 53.47456 23571 ft 390 kts 267°
2026-04-27 05:07 24.46237 53.44484 23918 ft 392 kts 267°
2026-04-27 05:07 24.46032 53.41495 24233 ft 393 kts 267°
2026-04-27 05:07 24.45826 53.38497 24549 ft 395 kts 267°
2026-04-27 05:07 24.45620 53.35501 24863 ft 396 kts 267°
2026-04-27 05:08 24.45409 53.32466 25173 ft 398 kts 266°
2026-04-27 05:08 24.45199 53.29455 25495 ft 399 kts 266°
2026-04-27 05:08 24.44989 53.26434 25806 ft 399 kts 266°
2026-04-27 05:08 24.44778 53.23411 26110 ft 401 kts 266°
2026-04-27 05:09 24.44564 53.20355 26393 ft 402 kts 267°
2026-04-27 05:09 24.44350 53.17323 26661 ft 403 kts 266°
2026-04-27 05:09 24.44132 53.14230 26946 ft 404 kts 266°
2026-04-27 05:09 24.43916 53.11175 27232 ft 405 kts 267°
2026-04-27 05:10 24.43699 53.08116 27496 ft 405 kts 266°
2026-04-27 05:10 24.43481 53.05042 27735 ft 407 kts 267°
2026-04-27 05:10 24.43260 53.01942 27969 ft 408 kts 266°
2026-04-27 05:10 24.43041 52.98861 28198 ft 409 kts 267°
2026-04-27 05:11 24.42818 52.95753 28432 ft 410 kts 267°
2026-04-27 05:11 24.42593 52.92642 28675 ft 410 kts 267°
2026-04-27 05:11 24.42366 52.89500 28942 ft 410 kts 267°
2026-04-27 05:11 24.42141 52.86406 29243 ft 408 kts 267°
2026-04-27 05:12 24.41917 52.83337 29515 ft 406 kts 267°
2026-04-27 05:12 24.41692 52.80243 29748 ft 406 kts 267°
2026-04-27 05:12 24.41467 52.77165 29965 ft 406 kts 267°
2026-04-27 05:12 24.41242 52.74094 30190 ft 405 kts 268°
2026-04-27 05:13 24.41019 52.71049 30374 ft 405 kts 268°
2026-04-27 05:13 24.40791 52.67950 30527 ft 406 kts 268°
2026-04-27 05:13 24.40565 52.64887 30692 ft 406 kts 268°
2026-04-27 05:13 24.40337 52.61780 30858 ft 407 kts 268°
2026-04-27 05:14 24.40109 52.58715 31021 ft 407 kts 268°
2026-04-27 05:14 24.39880 52.55630 31162 ft 407 kts 268°
2026-04-27 05:14 24.39650 52.52540 31297 ft 408 kts 268°
2026-04-27 05:14 24.39417 52.49447 31422 ft 409 kts 268°
2026-04-27 05:15 24.39186 52.46363 31535 ft 409 kts 268°
2026-04-27 05:15 24.38953 52.43261 31662 ft 410 kts 268°
2026-04-27 05:15 24.38720 52.40161 31796 ft 410 kts 268°
2026-04-27 05:15 24.38484 52.37052 31906 ft 410 kts 268°
2026-04-27 05:16 24.38246 52.33917 31981 ft 411 kts 268°
2026-04-27 05:16 24.37773 52.27687 31982 ft 412 kts 268°
2026-04-27 05:17 24.37305 52.21556 31988 ft 411 kts 268°
2026-04-27 05:17 24.36826 52.15341 31986 ft 411 kts 268°
2026-04-27 05:18 24.36343 52.09108 31987 ft 411 kts 268°
2026-04-27 05:18 24.35859 52.02884 31988 ft 410 kts 268°
2026-04-27 05:19 24.35374 51.96681 31987 ft 410 kts 268°
2026-04-27 05:19 24.34886 51.90461 31989 ft 410 kts 268°
2026-04-27 05:20 24.34397 51.84276 31989 ft 410 kts 268°
2026-04-27 05:20 24.33901 51.78038 31992 ft 409 kts 268°
2026-04-27 05:21 24.33407 51.71870 31991 ft 409 kts 268°
2026-04-27 05:21 24.32908 51.65655 31991 ft 409 kts 268°
2026-04-27 05:22 24.32480 51.59473 31990 ft 408 kts 270°
2026-04-27 05:22 24.32458 51.53280 31993 ft 407 kts 272°
2026-04-27 05:23 24.32509 51.47074 31993 ft 407 kts 272°
2026-04-27 05:23 24.32557 51.40916 31993 ft 407 kts 272°
2026-04-27 05:24 24.32609 51.34705 31992 ft 406 kts 272°
2026-04-27 05:24 24.32654 51.28542 31992 ft 406 kts 272°
2026-04-27 05:25 24.32697 51.22386 31993 ft 406 kts 272°
2026-04-27 05:25 24.32741 51.16209 31991 ft 406 kts 272°
2026-04-27 05:26 24.32781 51.10053 31992 ft 405 kts 272°
2026-04-27 05:26 24.32818 51.03861 31993 ft 406 kts 272°
2026-04-27 05:27 24.32851 50.97722 31994 ft 405 kts 272°
2026-04-27 05:27 24.32883 50.91563 31997 ft 405 kts 272°
2026-04-27 05:28 24.32912 50.85396 31999 ft 405 kts 272°
2026-04-27 05:28 24.32941 50.79234 32002 ft 405 kts 272°
2026-04-27 05:29 24.32963 50.73427 32005 ft 405 kts 272°
2026-04-27 05:29 24.32986 50.67283 32006 ft 404 kts 272°
2026-04-27 05:30 24.33005 50.61148 32008 ft 404 kts 272°
2026-04-27 05:30 24.33023 50.54983 32009 ft 404 kts 272°
2026-04-27 05:31 24.33038 50.48998 32011 ft 404 kts 272°
2026-04-27 05:31 24.33050 50.42868 32012 ft 404 kts 272°
2026-04-27 05:32 24.33058 50.36756 32012 ft 404 kts 272°
2026-04-27 05:32 24.33066 50.30617 32015 ft 404 kts 271°